RADUGA-1M 3

Last updated on Nov. 18, 2019, 4:21 a.m. UTC

1 39375U 13062A   19321.50586550  .00000163  00000-0  10000-3 0  9993
2 39375   0.0474 108.1876 0002322 195.6852 329.5306  1.00268848 22021
UTC
Height (km)
Latitude
Longitude
Inclination
Orbital Period
UTC large
Height (km)
Speed (km/s)
/
Latitude / Longitude
Inclination (degrees)
Orbital Period (minutes)
Azimuth
Elevation
Range (km)
Doppler Factor
iOS Compass Heading
iOS Angle

Next 30 passes for location: Hong Kong

Rise time Rise Azimuth (degrees) Set time Set Azimuth (degrees) Duration Max altitude (degrees)

No matching passes for this satellites